Weather History for KPKB - March, 2013

Change the Weather History Date:

Saturday, March 2, 2013

  Actual Average Record
Temperature  
Mean Temperature 29 °F 39 °F  
Max Temperature 31 °F 49 °F 79 °F (1991)
Min Temperature 26 °F 29 °F 1 °F (1980)
Degree Days  
Heating Degree Days 36 26  
Month to date heating degree days 69 53  
Cooling Degree Days 0 0  
Month to date cooling degree days 0 0  
Year to date cooling degree days 0 0  
Moisture  
Dew Point 22 °F    
Average Humidity 77    
Maximum Humidity 85    
Minimum Humidity 69    
Precipitation  
Precipitation T in 0.11 in 0.58 in (2002)
Month to date precipitation 0.01 0.21  
Year to date precipitation 5.03 5.86  
Sea Level Pressure  
Sea Level Pressure 30.01 in    
Wind  
Wind Speed 6 mph (NW)    
Max Wind Speed 12 mph    
Max Gust Speed 17 mph    
Visibility 5 miles    
Events Snow    
T = Trace of Precipitation, MM = Missing Value Source: NWS Daily Summary

Daily Weather History Graph

Daily Weather History Graph

Search for Another Location

Airport or City:

Trip Planner

Search our weather history database for the weather conditions in past years. The results will help you decide how hot, cold, wet, or windy it might be!

Date:

Astronomy

Mar. 02, 2013 Rise Set
Actual Time 6:56 AM EST 6:19 PM EST
Civil Twilight 6:29 AM EST 6:46 PM EST
Nautical Twilight 5:58 AM EST 7:17 PM EST
Astronomical Twilight 5:27 AM EST 7:48 PM EST
Moon 11:55 PM EST (3/2) 9:25 AM EST (3/2)
Length of Visible Light 12h 16m
Length of Day
11h 22m
Waning Gibbous, 74% of the Moon is Illuminated
Mar 2
Waning Gibbous
Mar 4
Last Quarter
Mar 11
New
Mar 19
First Quarter
Mar 27
Full

Hourly Weather History & Observations

Time (EST) Temp. Windchill Dew Point Humidity Pressure Visibility Wind Dir Wind Speed Gust Speed Precip Events Conditions
12:53 AM 28.9 °F 23.9 °F 19.9 °F 69% 30.04 in 10.0 mi Variable 4.6 mph - N/A   Overcast
1:53 AM 28.0 °F 22.8 °F 21.0 °F 75% 30.04 in 7.0 mi NW 4.6 mph - N/A   Overcast
2:53 AM 28.0 °F 22.8 °F 21.0 °F 75% 30.02 in 6.0 mi NW 4.6 mph - 0.00 in Snow Light Snow
3:53 AM 27.0 °F 21.6 °F 19.9 °F 75% 30.01 in 10.0 mi NW 4.6 mph - 0.00 in   Overcast
4:15 AM 26.6 °F 21.2 °F 19.4 °F 74% 29.98 in 9.0 mi NW 4.6 mph - N/A   Overcast
4:53 AM 27.0 °F 19.5 °F 19.9 °F 75% 30.01 in 10.0 mi NNW 6.9 mph - N/A   Overcast
5:53 AM 27.0 °F 21.6 °F 19.0 °F 72% 30.02 in 10.0 mi NNW 4.6 mph - N/A   Overcast
6:39 AM 26.6 °F 22.6 °F 19.4 °F 74% 29.99 in 10.0 mi NW 3.5 mph - 0.00 in   Overcast
6:53 AM 27.0 °F 21.6 °F 19.0 °F 72% 30.02 in 6.0 mi NW 4.6 mph - 0.00 in Snow Light Snow
7:08 AM 26.6 °F 20.0 °F 19.4 °F 74% 30.00 in 2.0 mi WNW 5.8 mph - 0.00 in Snow Light Snow
7:53 AM 27.0 °F 23.0 °F 21.9 °F 81% 30.03 in 2.0 mi NW 3.5 mph - 0.00 in Snow Light Snow
8:00 AM 26.6 °F 22.6 °F 21.2 °F 80% 30.01 in 5.0 mi WNW 3.5 mph - 0.00 in   Haze
8:31 AM 26.6 °F 21.2 °F 21.2 °F 80% 30.01 in 1.8 mi WNW 4.6 mph - 0.00 in Snow Light Snow
8:44 AM 26.6 °F 21.2 °F 21.2 °F 80% 30.01 in 3.0 mi WNW 4.6 mph - 0.00 in Snow Light Snow
8:53 AM 28.0 °F 22.8 °F 21.9 °F 78% 30.03 in 5.0 mi WNW 4.6 mph - 0.00 in   Haze
9:40 AM 28.4 °F 20.4 °F 21.2 °F 74% 30.00 in 8.0 mi WNW 8.1 mph - N/A   Overcast
9:53 AM 28.9 °F 21.9 °F 21.0 °F 72% 30.02 in 8.0 mi NNW 6.9 mph - N/A   Overcast
10:53 AM 28.9 °F 23.9 °F 21.0 °F 72% 30.02 in 5.0 mi NW 4.6 mph - 0.00 in Snow Light Snow
11:44 AM 28.4 °F 22.2 °F 23.0 °F 80% 30.00 in 4.0 mi WNW 5.8 mph - 0.00 in Snow Light Snow
11:53 AM 28.9 °F 21.1 °F 21.9 °F 75% 30.02 in 4.0 mi WNW 8.1 mph - 0.00 in Snow Light Snow
12:00 PM 30.2 °F 23.4 °F 21.2 °F 69% 30.00 in 5.0 mi WNW 6.9 mph - 0.00 in Snow Light Snow
12:21 PM 30.2 °F 22.6 °F 23.0 °F 75% 29.99 in 6.0 mi West 8.1 mph - 0.00 in Snow Light Snow
12:30 PM 28.4 °F 20.4 °F 21.2 °F 74% 29.99 in 1.8 mi West 8.1 mph - 0.00 in Snow Light Snow
12:53 PM 30.0 °F 23.2 °F 24.1 °F 79% 30.02 in 1.2 mi NW 6.9 mph - 0.00 in Snow Light Snow
1:00 PM 28.4 °F 20.4 °F 24.8 °F 86% 29.99 in 1.0 mi WNW 8.1 mph - 0.00 in Snow Light Snow
1:18 PM 28.4 °F 19.7 °F 23.0 °F 80% 29.98 in 2.5 mi WNW 9.2 mph - 0.00 in Snow Light Snow
1:25 PM 30.2 °F 22.6 °F 24.8 °F 80% 29.98 in 6.0 mi West 8.1 mph - 0.00 in   Haze
1:53 PM 30.9 °F 24.3 °F 21.9 °F 69% 30.00 in 10.0 mi WNW 6.9 mph - 0.00 in   Overcast
2:19 PM 30.2 °F 22.6 °F 23.0 °F 75% 29.97 in 2.0 mi NW 8.1 mph - 0.00 in Snow Light Snow
2:21 PM 30.2 °F 23.4 °F 23.0 °F 75% 29.97 in 1.8 mi NW 6.9 mph - 0.00 in Snow Light Snow
2:27 PM 30.2 °F 23.4 °F 23.0 °F 75% 29.97 in 3.0 mi WNW 6.9 mph - 0.00 in Snow Light Snow
2:53 PM 30.9 °F 25.2 °F 23.0 °F 72% 30.00 in 3.0 mi WNW 5.8 mph - 0.00 in Snow Light Snow
3:13 PM 30.2 °F 23.4 °F 21.2 °F 69% 29.97 in 9.0 mi NNW 6.9 mph - 0.00 in   Overcast
3:31 PM 30.2 °F 22.6 °F 21.2 °F 69% 29.97 in 7.0 mi WNW 8.1 mph - 0.00 in   Overcast
3:44 PM 30.2 °F 22.6 °F 23.0 °F 75% 29.98 in 7.0 mi NW 8.1 mph - 0.00 in Snow Light Snow
3:53 PM 30.0 °F 24.1 °F 23.0 °F 75% 30.00 in 7.0 mi NNW 5.8 mph - 0.00 in Snow Light Snow
4:53 PM 30.0 °F 22.4 °F 23.0 °F 75% 30.01 in 2.5 mi NNW 8.1 mph - 0.00 in Snow Light Snow
5:08 PM 30.2 °F 25.4 °F 23.0 °F 75% 29.98 in 9.0 mi NNW 4.6 mph - 0.00 in   Overcast
5:43 PM 30.2 °F 21.3 °F 21.2 °F 69% 29.99 in 8.0 mi WNW 10.4 mph - 0.00 in   Overcast
5:49 PM 28.4 °F 19.7 °F 23.0 °F 80% 29.99 in 1.8 mi WNW 9.2 mph - 0.00 in Snow Light Snow
5:53 PM 28.9 °F 20.4 °F 24.1 °F 82% 30.02 in 1.2 mi NW 9.2 mph - 0.00 in Snow Light Snow
6:05 PM 28.4 °F 22.2 °F 23.0 °F 80% 30.00 in 2.5 mi NW 5.8 mph - 0.00 in Snow Light Snow
6:36 PM 28.4 °F 22.2 °F 23.0 °F 80% 30.01 in 2.0 mi NW 5.8 mph - 0.00 in Snow Light Snow
6:53 PM 28.0 °F 21.7 °F 24.1 °F 85% 30.04 in 2.5 mi WNW 5.8 mph - 0.00 in Snow Light Snow
6:59 PM 28.4 °F 22.2 °F 24.8 °F 86% 30.01 in 3.0 mi WNW 5.8 mph - 0.00 in Snow Light Snow
7:30 PM 28.4 °F 21.2 °F 23.0 °F 80% 30.02 in 4.0 mi WNW 6.9 mph - 0.00 in Snow Light Snow
7:38 PM 28.4 °F 21.2 °F 23.0 °F 80% 30.02 in 5.0 mi NW 6.9 mph - 0.00 in Snow Light Snow
7:53 PM 28.0 °F 19.3 °F 21.9 °F 78% 30.05 in 6.0 mi NNW 9.2 mph - 0.00 in Snow Light Snow
8:14 PM 28.4 °F 23.3 °F 21.2 °F 74% 30.02 in 4.0 mi WNW 4.6 mph - 0.00 in Snow Light Snow
8:27 PM 28.4 °F 22.2 °F 21.2 °F 74% 30.02 in 2.5 mi NW 5.8 mph - 0.00 in Snow Light Snow
8:41 PM 26.6 °F 20.0 °F 21.2 °F 80% 30.03 in 3.0 mi NW 5.8 mph - 0.00 in Snow Light Snow
8:53 PM 27.0 °F 21.6 °F 23.0 °F 85% 30.06 in 3.0 mi NW 4.6 mph - 0.00 in Snow Light Snow
9:21 PM 28.4 °F 23.3 °F 23.0 °F 80% 30.03 in 5.0 mi WNW 4.6 mph - 0.00 in Snow Light Snow
9:42 PM 26.6 °F 22.6 °F 23.0 °F 86% 30.03 in 2.5 mi NW 3.5 mph - 0.00 in Snow Light Snow
9:46 PM 26.6 °F 22.6 °F 23.0 °F 86% 30.03 in 3.0 mi NW 3.5 mph - 0.00 in Snow Light Snow
9:53 PM 27.0 °F 23.0 °F 23.0 °F 85% 30.06 in 3.0 mi NW 3.5 mph - 0.00 in Snow Light Snow
10:16 PM 26.6 °F 20.0 °F 23.0 °F 86% 30.03 in 4.0 mi WNW 5.8 mph - 0.00 in Snow Light Snow
10:53 PM 27.0 °F 19.5 °F 23.0 °F 85% 30.05 in 7.0 mi WNW 6.9 mph - 0.00 in   Overcast
11:00 PM 26.6 °F 19.1 °F 23.0 °F 86% 30.02 in 7.0 mi WNW 6.9 mph - N/A   Overcast
11:53 PM 27.0 °F 20.5 °F 21.9 °F 81% 30.05 in 10.0 mi WNW 5.8 mph - 0.00 in   Overcast